Theta_e
334 334 334 334 335 335 335 335 335 336 336 337 336 336 336 336 336 335 335 335 335 333 333 334 333 333 334 334 334 334 333 333 332 330 331 332 333 333 332 331 330 330 330 330 331 332 334 334 332 332 333 333 333 331 331 331 330 330 330 329 329 328 329
330 331 332 332 333 334 334 335 334 335 335 335 336 336 335 335 336 336 335 335 334 333 333 333 333 333 333 333 333 334 333 331 330 330 330 332 333 332 331 331 330 330 329 330 329 328 331 334 333 332 332 333 332 331 331 331 331 331 330 329 328 328 330
327 328 328 329 330 331 332 333 333 334 334 334 334 334 334 334 335 335 335 335 335 334 334 333 333 332 332 332 332 333 332 331 330 330 331 332 331 331 331 330 329 329 329 329 329 329 330 332 333 332 331 332 332 331 331 331 331 331 330 329 328 328 329
326 326 327 328 328 328 329 329 331 332 333 333 333 333 334 334 334 335 335 335 335 335 335 333 333 332 331 331 331 332 332 332 331 330 330 331 330 330 331 330 329 329 329 329 329 330 330 330 332 333 331 331 331 330 331 330 330 331 331 329 328 329 329
324 325 326 327 327 327 327 326 328 329 331 332 332 333 333 333 333 333 334 334 334 334 334 333 333 333 331 329 330 331 331 332 332 331 330 331 331 329 330 331 330 330 330 330 329 330 330 330 331 332 331 331 331 330 330 330 331 331 331 329 328 329 328
323 323 324 325 324 324 324 325 326 327 329 330 331 332 333 333 332 333 333 334 334 334 334 333 333 333 332 330 330 330 330 331 331 331 331 333 333 331 330 331 330 330 330 330 330 330 330 329 329 330 331 331 331 331 330 331 331 331 331 329 328 329 328
321 321 322 322 321 321 322 324 325 326 326 327 329 330 331 331 332 332 333 333 333 333 334 334 333 333 332 331 331 330 330 330 330 330 331 332 333 332 331 330 329 330 331 331 330 329 329 329 329 329 330 331 330 330 330 331 331 331 331 329 329 328 328
319 320 320 319 319 320 321 322 322 323 324 325 326 327 328 330 331 331 332 332 332 333 333 333 332 332 332 332 332 330 329 329 329 330 331 332 332 331 331 330 329 329 330 331 330 330 330 330 330 329 330 330 330 330 330 330 330 330 331 330 329 328 328
318 318 318 318 318 319 319 319 320 321 322 323 324 325 326 328 329 330 330 330 331 331 331 332 332 331 331 331 331 330 329 328 329 330 331 331 331 331 331 331 330 329 330 330 330 330 331 330 330 330 330 330 330 330 330 330 329 329 330 330 330 329 328
316 316 316 317 317 317 317 317 318 319 321 321 322 323 325 327 328 329 329 329 329 328 329 329 329 329 329 329 330 330 329 328 328 329 329 330 331 331 331 330 329 329 330 330 330 330 331 331 330 331 330 329 329 329 330 331 330 328 330 331 330 329 328
314 315 315 316 316 316 315 315 315 317 318 320 321 322 323 324 325 326 326 326 326 325 326 327 327 327 328 328 329 330 330 329 328 328 328 329 330 331 331 330 329 329 330 330 330 330 330 331 331 331 331 330 329 328 328 330 330 328 328 330 331 330 329
314 314 314 314 314 314 314 313 313 315 316 318 319 320 320 320 320 322 324 324 324 325 325 326 326 327 326 327 329 329 329 329 328 328 328 328 329 330 330 330 330 330 330 330 330 330 331 331 331 331 331 330 329 328 327 328 329 329 328 330 331 330 329
312 313 313 313 313 313 313 311 311 313 314 315 316 318 317 317 318 320 321 322 323 324 326 326 326 327 326 327 328 329 329 329 328 328 328 328 329 329 328 329 330 331 331 330 330 331 332 331 331 331 331 330 330 330 328 327 328 329 328 329 330 330 329
312 312 311 312 312 311 311 310 309 310 311 312 313 314 314 315 315 316 317 317 318 320 322 324 325 326 327 327 328 329 329 329 328 328 328 328 328 328 327 328 329 330 331 331 331 331 332 331 330 330 331 331 330 330 330 328 328 329 329 329 329 330 329
311 311 310 311 311 310 309 309 308 308 309 310 311 311 312 313 313 314 314 313 313 315 317 319 320 322 324 325 327 328 328 327 327 327 327 327 327 328 328 327 328 328 329 330 331 331 331 331 330 329 330 330 330 330 330 329 328 328 329 329 329 329 328
311 310 310 310 310 309 309 308 307 307 307 308 309 309 310 310 311 312 312 311 310 311 313 314 316 318 320 322 324 326 327 326 326 326 327 327 327 327 327 327 327 328 327 328 330 330 330 330 330 330 329 329 329 330 330 329 328 328 328 328 329 329 328
310 310 309 309 309 308 308 308 307 306 306 306 306 307 307 308 308 309 310 308 307 308 309 310 312 314 315 318 321 323 325 326 326 326 326 326 327 326 327 327 327 327 327 327 328 329 327 328 329 328 327 328 329 330 330 330 329 329 329 328 328 328 328
309 309 308 308 308 307 307 307 307 306 305 305 304 305 305 305 306 306 308 307 305 305 306 307 308 310 311 314 317 320 322 324 325 325 326 326 326 326 327 327 327 327 327 327 328 328 327 326 327 327 327 329 330 330 331 330 329 329 328 328 327 327 327
308 308 307 307 307 307 307 307 307 306 305 305 304 304 303 303 304 303 305 305 303 302 303 304 305 306 308 310 313 316 319 321 323 325 326 327 326 326 326 327 328 328 328 328 328 328 327 327 326 326 327 329 331 331 330 330 330 328 328 327 326 327 326
307 307 307 307 307 306 306 306 307 306 306 305 304 304 303 303 303 302 302 303 301 300 301 302 302 303 304 307 310 313 316 319 321 324 326 327 327 326 326 326 327 328 328 328 328 328 328 328 327 326 326 327 329 330 330 330 330 329 328 327 326 326 326
306 306 306 306 306 306 305 306 306 306 306 306 305 304 303 303 302 302 301 301 300 299 299 300 300 301 302 305 308 311 314 316 319 322 324 326 326 327 327 326 327 327 327 328 328 328 328 328 327 326 327 327 327 328 329 329 329 329 328 327 327 327 326
305 305 305 305 305 305 305 305 305 305 305 305 305 304 303 303 302 301 301 301 300 298 297 297 298 299 301 304 307 311 313 315 318 320 322 324 326 327 327 327 327 327 326 327 327 327 327 328 328 327 327 327 327 328 328 328 329 329 327 326 326 325 325
305 304 304 304 304 304 304 304 304 304 304 304 304 304 304 303 302 301 300 300 299 298 297 296 297 298 300 303 306 310 313 315 317 318 319 322 325 327 327 326 326 326 326 326 326 327 327 328 328 328 327 326 326 327 327 327 328 328 326 326 325 324 324
304 304 304 304 304 303 303 303 303 303 302 302 303 304 304 303 302 301 300 300 299 298 297 296 296 298 301 303 306 309 312 314 316 317 318 320 323 324 325 326 325 325 325 326 326 327 327 327 327 328 327 326 326 326 327 328 328 327 326 326 325 324 324
303 303 304 304 304 303 303 303 303 302 302 301 301 302 303 302 302 301 300 299 299 297 296 296 296 298 300 303 306 308 310 312 314 315 317 319 322 324 325 325 325 325 325 325 326 326 326 327 327 327 327 327 327 327 326 326 328 328 327 326 325 324 323
302 302 302 303 303 302 303 303 303 302 301 301 301 301 301 301 301 300 299 299 298 297 296 296 296 297 299 302 304 306 307 309 312 314 314 316 320 322 323 324 325 325 325 325 326 326 326 326 326 327 327 328 328 327 326 326 327 328 327 327 326 325 324
302 301 300 301 301 301 301 302 302 302 301 300 300 300 300 300 300 299 299 298 298 297 297 296 297 296 297 300 302 303 304 306 308 310 311 312 313 315 318 321 323 324 324 324 325 326 326 326 326 326 327 327 327 327 327 327 327 327 327 327 326 326 325
301 300 300 299 300 299 299 300 301 302 301 300 300 300 300 300 300 299 298 298 297 297 296 296 297 297 297 297 299 300 301 302 304 305 306 307 307 308 311 314 318 319 320 322 323 325 326 326 326 326 326 326 326 326 327 328 328 328 327 327 326 325 325
301 300 299 299 298 298 299 299 299 300 301 300 300 300 300 300 299 299 298 298 297 297 296 296 297 297 296 296 297 297 298 299 299 300 301 302 303 304 305 307 311 313 315 317 321 322 323 324 325 326 326 326 325 325 326 327 327 327 326 326 325 325 325
300 300 299 299 298 298 298 298 298 299 300 300 299 299 300 300 299 299 298 298 297 297 296 296 296 296 296 296 296 296 296 297 297 297 298 298 300 301 302 302 305 308 311 314 317 319 321 323 323 324 325 325 324 325 325 325 325 325 325 325 325 326 326
300 300 299 299 298 298 297 297 297 298 299 299 298 298 299 300 299 299 298 298 297 297 296 296 296 296 296 296 296 296 296 296 296 296 297 297 297 299 300 300 302 304 307 309 312 316 320 321 322 323 324 324 323 323 324 324 324 324 325 324 325 326 325
299 299 299 299 298 298 297 297 297 297 297 297 296 296 298 299 299 299 298 298 298 297 297 297 296 296 296 296 296 296 296 296 296 296 296 296 296 297 298 300 301 302 304 307 310 313 316 319 321 322 324 324 322 322 323 323 323 324 324 324 323 322 320
299 299 299 299 298 298 297 297 297 297 297 297 296 296 297 299 299 298 298 298 297 297 297 297 296 296 296 296 296 296 296 296 295 296 295 295 295 296 297 298 300 301 303 305 308 311 313 316 319 321 323 323 323 322 322 321 320 321 321 321 320 318 317
299 299 299 299 299 298 297 297 297 297 296 296 296 295 297 298 298 296 295 296 296 296 296 296 296 296 296 296 295 296 296 296 296 295 295 295 294 294 295 296 297 299 301 303 305 308 311 314 317 320 321 322 322 322 320 318 318 317 317 317 317 315 316
299 299 299 299 299 298 297 297 297 297 296 296 295 295 295 296 297 295 294 294 294 294 294 295 295 296 297 296 296 295 295 296 296 296 295 294 294 294 294 294 295 298 300 301 302 304 307 310 314 316 318 321 322 320 317 316 316 315 313 313 314 313 313
299 299 299 299 299 298 297 296 297 297 296 296 295 295 295 295 296 295 294 294 293 293 293 294 295 296 297 296 296 296 295 295 296 296 295 294 294 294 294 294 295 297 299 300 301 302 303 306 308 310 313 317 318 316 315 314 313 312 310 310 310 310 309
300 299 299 299 299 298 297 296 296 296 296 295 295 295 294 294 295 295 294 293 293 293 293 293 294 295 297 297 296 296 296 295 295 295 295 295 294 295 295 295 295 296 298 298 299 301 301 302 303 304 308 312 314 313 313 313 311 309 308 307 306 306 305
Wind_Speed
15 16 15 15 15 16 15 14 12 12 12 12 12 12 12 13 15 16 16 17 18 17 18 20 20 20 22 23 24 24 25 26 27 26 25 24 23 24 27 28 27 21 15 11 7 5 3 3 7 11 15 18 19 20 20 21 20 18 19 19 18 18 20
18 18 18 17 18 18 17 16 15 15 14 14 14 14 14 15 15 17 16 15 16 17 17 19 18 18 20 23 25 25 24 23 25 26 26 25 26 26 24 25 24 21 19 15 12 10 5 4 4 4 9 13 15 20 22 21 20 19 19 19 19 18 19
20 20 20 20 20 20 20 19 18 17 16 16 16 15 15 15 14 16 17 16 16 17 18 20 20 19 20 23 24 24 24 23 24 26 27 27 28 29 26 24 22 18 15 13 13 13 8 5 4 5 9 12 11 16 22 23 21 19 19 19 20 19 18
21 21 22 22 21 22 22 21 20 19 18 17 17 17 17 17 16 15 16 17 17 18 18 19 21 22 22 22 23 23 23 24 25 24 26 28 27 27 27 25 23 21 19 16 16 16 10 6 5 4 9 14 12 13 20 23 22 20 18 20 21 20 19
20 21 21 20 20 21 22 22 22 21 21 20 20 20 19 20 20 19 18 18 19 19 19 20 22 22 21 20 21 22 22 24 26 23 24 27 26 25 26 27 26 27 27 25 23 22 18 15 10 5 7 12 10 10 17 21 22 22 20 21 23 22 21
19 20 21 20 21 21 21 22 23 23 24 24 24 24 23 22 22 22 21 21 21 21 19 20 22 22 21 20 20 22 22 22 24 24 25 28 28 27 27 27 27 27 29 28 26 25 23 20 14 8 9 12 9 8 13 19 21 21 21 22 24 25 24
19 20 20 21 22 23 23 23 23 24 24 25 25 26 25 23 23 23 22 22 22 21 19 21 22 24 25 23 23 25 23 22 23 25 27 29 29 28 27 26 27 28 29 28 27 26 24 21 18 13 10 9 9 8 10 17 20 18 19 23 26 26 25
19 19 20 21 21 22 23 23 23 23 23 24 24 24 24 24 25 24 23 22 22 22 22 22 23 24 25 25 25 26 25 24 25 26 28 28 27 27 27 26 27 28 28 28 27 27 27 25 24 21 15 8 5 6 7 11 16 18 20 23 26 29 25
19 19 19 19 19 20 22 22 22 22 22 23 23 23 24 24 25 26 25 24 23 24 24 23 23 24 26 26 26 25 26 26 24 25 26 26 26 25 25 25 25 26 28 30 29 29 29 29 28 27 23 15 8 4 4 6 8 13 20 22 24 29 27
18 19 18 18 18 19 21 22 22 21 21 23 24 24 24 24 25 25 25 24 24 24 24 24 24 25 26 27 27 26 27 26 25 25 25 25 24 22 23 24 24 25 28 29 30 30 31 31 29 28 28 25 17 8 4 6 6 9 17 22 23 28 29
19 19 18 18 19 19 20 23 23 21 21 22 23 24 25 25 25 24 24 26 27 26 26 26 25 25 26 27 28 27 26 24 24 25 26 25 24 21 22 23 24 26 28 28 29 30 31 31 29 29 28 28 26 16 8 6 7 12 18 22 24 28 31
20 20 19 19 20 19 20 24 24 21 20 21 21 23 24 25 26 27 26 28 29 28 26 25 25 25 25 26 26 26 25 24 23 23 24 24 22 21 21 22 23 26 28 29 29 29 30 30 30 29 27 27 28 23 17 10 6 12 20 23 24 26 30
22 21 20 20 21 20 20 24 25 21 20 21 21 22 23 25 28 29 29 30 30 29 27 25 24 23 23 23 24 24 25 23 23 23 23 23 21 20 20 21 22 25 28 29 29 28 28 28 28 29 27 27 27 25 23 17 7 8 19 26 26 25 28
22 22 22 22 21 22 23 25 26 23 22 22 22 22 23 25 27 29 30 32 32 29 26 24 23 21 20 22 22 22 22 20 20 18 17 18 18 18 18 20 22 24 25 26 27 27 26 26 27 27 26 26 28 27 25 20 11 7 13 22 26 24 26
23 23 24 24 23 24 24 26 28 27 25 24 23 24 24 24 26 27 29 33 35 33 30 27 25 22 20 20 21 20 18 16 16 14 13 14 16 16 16 18 21 23 23 24 26 26 25 25 25 25 27 26 26 28 28 24 16 11 11 17 24 24 25
24 24 26 25 25 25 25 26 29 30 29 26 25 24 24 24 26 26 26 33 38 37 35 33 29 27 24 21 19 18 16 13 13 13 12 12 13 14 14 15 18 22 22 22 24 25 25 24 23 25 28 29 28 29 30 27 21 16 15 17 23 26 26
26 26 27 27 26 26 26 26 29 32 32 31 29 27 26 26 29 28 25 30 39 40 38 38 34 31 29 25 21 18 15 13 12 12 10 10 11 11 13 14 16 20 22 22 24 24 24 24 24 25 28 30 31 31 29 28 25 22 20 19 22 28 29
28 27 27 27 26 26 26 25 27 31 32 33 33 32 33 31 30 29 25 27 38 43 41 40 39 35 32 29 25 20 17 15 13 13 11 10 10 10 13 14 15 19 21 24 26 22 19 19 20 22 27 29 31 31 29 29 29 25 24 22 21 25 28
28 27 26 26 26 26 26 25 25 29 30 32 33 34 37 37 32 31 28 25 35 45 44 42 41 39 36 33 28 24 21 18 15 13 11 10 10 10 13 15 16 18 20 24 26 21 17 18 19 24 30 28 27 29 29 30 30 25 24 24 22 23 26
27 26 25 25 25 25 26 25 25 27 28 30 32 33 35 36 35 36 33 27 32 44 47 45 44 43 39 35 31 28 25 21 17 14 11 10 10 11 13 15 17 18 19 21 23 20 16 19 23 28 32 28 26 28 29 28 28 25 23 23 22 23 26
26 26 26 25 26 25 26 26 25 26 27 28 31 32 33 33 34 37 36 30 31 43 50 48 46 45 41 36 32 28 26 24 20 16 12 10 9 10 12 13 15 16 16 17 19 19 17 17 24 28 30 26 25 27 28 26 25 25 23 22 22 24 25
25 26 27 27 27 27 27 27 27 28 29 28 28 31 33 33 34 36 36 32 31 41 49 46 44 45 42 36 31 27 25 24 20 16 14 12 10 8 9 10 11 12 13 14 15 16 17 17 21 25 27 26 23 25 27 24 23 23 22 20 22 24 23
25 25 27 27 27 27 28 28 28 29 30 30 28 30 32 34 35 36 35 33 32 39 46 45 44 45 42 34 29 25 23 21 19 17 16 15 14 11 8 8 8 9 10 10 11 13 16 18 19 22 26 28 26 25 26 25 23 23 21 19 21 23 22
24 24 25 27 27 27 27 27 29 30 31 32 30 29 31 32 34 36 36 34 33 36 43 47 47 48 44 35 28 24 23 22 20 20 20 19 18 14 9 7 9 9 9 9 9 10 13 16 18 20 23 27 28 27 27 27 26 25 23 21 22 24 23
27 26 25 26 28 27 26 25 28 30 31 33 32 30 30 30 32 34 35 34 33 35 42 48 50 51 47 39 30 25 24 24 23 23 23 22 20 16 12 12 12 10 10 10 10 9 10 13 17 19 21 25 28 29 29 29 28 29 28 25 22 23 25
29 31 30 29 30 30 29 25 25 28 31 32 32 31 30 30 31 33 34 33 32 34 41 48 50 52 50 44 35 29 26 26 25 24 25 24 20 15 12 13 13 11 12 12 12 12 10 11 14 18 21 24 26 27 27 28 28 29 31 30 26 26 28
28 31 31 31 31 33 33 29 25 25 29 32 32 31 30 30 30 32 33 33 32 33 39 46 49 51 52 48 42 35 30 28 26 26 26 25 22 19 16 13 13 14 15 14 13 14 13 11 11 15 21 26 26 25 26 26 27 28 30 30 29 29 31
28 29 30 31 32 32 34 33 29 25 27 31 31 30 29 28 29 30 32 33 32 33 37 43 46 48 50 49 45 41 37 32 29 27 26 25 24 23 21 18 15 15 15 13 12 11 12 14 13 14 20 25 26 27 26 24 24 26 27 28 28 28 28
27 27 28 30 32 32 32 33 32 27 25 28 30 30 28 27 27 29 31 33 33 34 36 41 43 44 47 48 46 43 41 36 32 30 29 28 27 26 25 24 21 18 16 13 11 8 9 11 12 15 18 20 22 24 25 22 21 23 24 24 25 23 22
26 26 27 28 31 32 31 31 32 30 26 27 30 30 26 25 26 28 30 31 33 34 36 40 42 41 43 45 43 41 39 36 34 33 31 30 29 28 27 27 25 23 21 17 14 11 9 9 11 16 18 17 17 19 22 22 20 20 21 22 21 19 19
25 25 26 26 27 31 31 30 30 30 28 27 30 29 24 22 25 28 30 30 30 32 34 38 41 41 41 42 41 39 37 34 32 33 33 31 31 31 29 27 27 26 24 22 18 14 12 10 12 17 19 17 15 17 22 24 20 18 19 20 20 19 18
24 22 22 23 25 27 29 28 28 29 28 28 30 30 26 23 24 27 28 29 30 31 32 36 38 39 40 41 39 37 36 34 32 32 32 31 32 33 31 30 29 27 25 23 21 16 12 9 10 16 19 17 17 20 23 25 23 23 22 21 20 17 16
22 20 19 21 24 25 26 26 26 27 27 27 29 31 28 24 25 27 27 28 30 31 32 34 36 36 37 39 39 37 36 34 31 30 30 30 31 32 32 32 31 28 26 24 21 18 14 7 7 15 18 17 19 22 23 23 22 22 22 19 17 15 14
20 20 18 18 22 24 24 24 24 25 25 26 28 29 28 25 26 28 29 28 29 31 31 32 34 34 34 36 38 37 36 32 28 27 28 28 29 31 31 32 32 29 26 24 21 19 15 8 6 12 16 16 17 19 20 19 18 18 18 19 17 15 16
19 20 19 18 19 22 23 23 23 23 23 24 26 27 26 24 24 27 29 29 29 30 30 31 33 33 31 32 35 36 36 33 28 25 25 27 29 30 30 31 31 28 25 23 22 20 16 11 7 8 13 16 15 14 15 16 16 16 18 19 19 17 15
19 18 18 17 17 20 23 23 22 22 23 24 25 26 26 25 24 25 28 29 30 31 30 31 34 33 30 29 30 33 34 34 30 26 23 24 26 28 29 29 29 27 25 24 23 22 20 15 11 7 5 9 9 12 15 17 16 18 19 19 19 18 16
16 16 17 17 16 17 21 23 22 22 22 23 24 25 26 25 24 25 27 28 30 31 31 31 33 34 30 27 27 29 31 33 32 28 24 23 23 25 27 28 28 27 26 26 25 24 24 23 20 16 9 9 15 18 20 21 21 21 20 19 18 18 17
Wind_Direction
9 4 0 358 358 357 353 344 335 335 333 324 315 309 298 291 287 281 280 278 278 281 279 274 270 271 273 269 265 260 255 252 246 239 239 236 231 233 233 231 231 230 232 234 215 195 159 175 215 217 220 225 224 221 220 219 216 216 217 215 213 209 204
13 11 9 10 10 6 4 4 359 352 346 336 327 321 313 302 296 296 297 292 285 279 273 272 272 272 273 273 269 265 262 261 259 252 244 236 232 234 232 228 229 226 224 234 233 223 208 166 186 207 206 212 218 220 219 218 216 216 216 214 213 209 204
11 9 9 11 10 7 7 7 4 359 353 348 342 336 330 322 310 304 305 303 295 286 278 273 272 272 272 273 273 272 271 270 266 258 249 240 236 236 235 228 226 219 215 229 234 224 213 184 190 202 195 194 204 215 214 214 214 213 213 212 211 210 203
12 9 8 7 5 4 3 1 360 359 355 352 349 344 342 339 331 320 312 309 306 300 292 281 277 278 276 275 277 278 276 271 265 260 255 250 242 237 235 229 225 221 215 216 220 214 206 195 195 194 200 203 206 209 211 213 213 212 212 208 207 207 197
14 11 6 4 5 3 360 356 355 355 353 351 349 347 346 342 337 329 320 313 311 307 299 293 290 288 284 281 279 277 274 270 264 261 258 252 245 240 236 230 228 227 221 218 217 213 208 204 197 181 192 201 210 218 214 212 211 212 213 207 203 203 196
15 11 6 4 3 2 358 355 353 351 349 348 347 348 348 345 338 331 324 317 313 310 304 301 299 292 289 288 282 277 274 269 263 260 255 249 246 243 236 229 226 226 225 225 222 216 214 209 205 200 193 194 199 209 210 208 207 210 214 212 205 200 197
18 14 10 5 360 358 358 356 353 350 348 347 347 349 350 348 343 336 328 321 318 314 308 306 305 301 298 293 284 279 274 265 260 259 254 249 247 243 235 228 225 224 226 228 224 220 218 211 206 201 189 193 200 193 197 202 201 202 210 213 207 199 196
20 17 14 6 359 357 358 356 353 350 349 348 348 349 350 348 345 342 336 330 325 319 312 310 310 307 304 299 290 281 275 269 264 258 253 252 247 239 234 230 227 225 225 227 227 225 222 217 214 207 192 181 196 195 196 202 201 204 206 207 206 202 197
24 21 17 11 5 2 0 357 353 351 349 350 350 349 349 348 345 342 340 337 332 325 318 313 311 309 305 299 294 287 280 277 267 254 250 251 249 241 234 230 226 226 230 232 232 229 226 223 221 215 203 192 187 188 200 203 204 213 209 202 204 205 200
28 24 19 16 12 7 4 2 358 355 354 353 353 352 353 353 348 344 342 339 334 329 322 315 310 309 305 298 293 289 285 281 268 256 251 249 249 243 234 229 226 228 232 233 233 231 228 226 222 218 212 206 200 187 187 203 202 210 207 201 201 204 202
31 28 25 20 16 11 8 5 2 360 358 357 357 358 0 1 357 352 347 341 334 327 320 314 310 307 304 300 294 288 287 281 267 258 253 249 247 243 235 232 227 227 230 230 231 231 227 225 222 218 216 213 208 203 192 195 209 208 202 200 203 206 204
34 31 29 23 19 17 12 8 6 5 2 359 359 1 3 4 3 0 353 346 340 334 325 316 311 308 305 301 294 289 288 281 266 257 256 252 246 238 234 234 229 226 230 230 230 230 227 225 222 218 218 215 213 213 205 196 211 210 201 199 204 208 206
37 34 32 27 24 23 17 11 11 10 5 3 4 3 3 5 6 6 4 359 354 347 338 327 319 314 310 307 299 293 291 283 270 262 259 253 247 240 236 236 233 229 231 231 229 228 227 224 221 219 219 218 216 217 210 203 209 208 203 204 204 206 207
40 38 33 30 28 26 21 17 15 13 10 11 10 7 7 9 11 14 15 14 12 7 360 352 342 333 325 322 313 301 293 284 273 264 256 251 248 246 243 240 238 234 232 232 230 230 229 226 224 220 220 220 219 217 212 207 209 199 200 207 205 203 204
43 41 36 33 31 27 24 22 21 18 16 14 11 10 10 10 13 18 17 15 17 17 16 14 8 1 353 343 331 317 303 289 274 260 249 246 241 237 239 241 242 242 241 239 235 234 233 231 226 221 220 221 219 219 218 213 208 193 183 199 202 198 199
42 42 39 36 32 29 26 25 25 24 22 17 13 12 11 11 16 20 15 12 16 16 14 15 13 11 10 3 351 335 317 299 284 266 251 249 244 237 235 239 244 248 250 251 245 239 235 231 223 219 224 226 221 220 218 212 206 194 181 188 196 193 193
39 40 40 36 32 29 27 27 26 26 27 24 21 19 18 17 20 22 17 13 16 17 14 13 12 10 10 8 4 354 337 321 305 289 271 264 260 252 246 245 248 251 253 255 253 245 237 230 222 219 225 226 221 219 214 208 207 203 192 187 192 195 194
38 38 37 35 32 30 28 28 27 26 27 27 27 28 29 26 22 22 20 13 16 19 17 13 11 10 8 5 3 359 352 343 328 312 299 282 269 260 259 259 256 255 254 253 250 246 237 232 228 227 227 223 218 216 210 207 209 207 200 192 188 195 197
38 37 35 33 32 30 29 29 27 26 27 28 28 29 32 32 26 23 23 16 16 20 19 15 12 9 7 5 1 358 354 349 340 331 321 304 288 271 264 264 261 257 253 248 244 243 238 229 228 235 232 223 216 213 210 209 208 205 204 199 189 189 194
38 37 35 33 32 31 30 29 27 25 25 27 28 27 28 30 28 26 26 22 18 19 19 17 13 9 6 4 1 357 354 349 343 341 336 322 305 289 277 272 267 260 253 247 243 243 236 218 217 232 236 226 216 214 213 210 206 204 205 199 190 186 188
43 40 37 34 32 30 29 28 27 25 24 25 27 27 27 26 25 25 25 24 20 18 19 17 12 8 5 2 360 357 355 351 345 339 337 333 319 301 290 280 271 266 261 256 250 245 241 224 215 227 236 229 217 215 215 211 206 205 204 195 187 186 185
48 47 43 40 37 34 31 29 27 25 24 24 24 26 27 26 24 23 22 21 19 17 17 15 11 9 6 1 359 358 356 353 349 342 335 333 332 323 307 292 283 284 280 272 263 252 247 237 219 219 231 233 221 212 212 211 205 200 198 191 183 183 185
49 48 46 43 40 38 36 34 32 29 26 24 22 23 25 25 25 23 20 20 19 16 15 12 11 12 11 6 2 1 359 357 356 352 343 333 331 332 330 319 307 300 291 283 277 259 246 241 231 227 236 238 228 215 209 207 205 199 196 193 184 179 184
43 44 43 41 39 37 37 37 37 35 31 28 25 24 24 25 24 22 21 21 19 16 14 12 12 14 14 12 9 7 8 6 4 2 354 343 336 330 321 321 320 310 296 285 282 269 250 243 238 236 239 239 232 223 213 205 202 199 197 196 190 183 186
41 39 37 35 34 32 33 37 39 37 34 32 30 27 25 25 24 21 21 21 20 17 13 13 14 15 16 16 15 15 16 13 8 5 359 350 343 331 316 317 323 321 310 298 292 283 261 247 240 234 236 240 237 229 221 213 206 200 198 198 194 190 191
44 41 38 35 33 29 28 32 39 38 35 33 32 30 28 27 25 23 22 22 21 17 14 14 15 15 16 18 20 21 22 17 11 9 7 4 2 353 336 327 328 328 324 317 307 295 278 257 243 232 228 234 238 233 225 221 217 211 205 202 198 198 199
47 45 42 39 35 31 28 28 33 38 37 33 32 31 29 27 27 26 25 24 22 19 16 15 15 15 16 19 22 23 24 21 15 14 16 16 15 13 3 349 337 329 326 327 322 309 291 273 252 231 216 213 219 225 222 220 220 217 213 208 205 206 205
49 47 46 43 39 35 31 28 27 31 36 36 33 31 29 27 26 26 25 23 21 18 16 15 16 16 15 17 21 23 24 23 17 14 15 14 12 13 9 1 351 336 329 329 328 313 290 277 263 240 218 207 206 212 216 217 217 216 215 213 211 212 211
50 48 47 46 42 37 33 30 26 25 32 36 33 30 29 27 24 23 23 22 21 18 17 17 18 18 17 17 19 20 22 22 17 13 13 11 12 14 10 5 359 348 340 333 321 302 282 269 252 238 229 217 208 209 212 215 215 213 211 211 211 213 213
50 48 48 49 46 40 35 32 28 26 28 31 29 25 26 28 25 21 21 21 21 19 18 19 20 20 19 18 19 19 19 19 16 15 14 11 13 15 13 10 6 359 353 346 330 311 289 259 232 231 232 221 208 209 213 217 213 207 206 206 206 209 207
51 50 51 52 48 43 39 35 32 31 30 29 25 21 22 28 26 22 20 20 19 18 17 18 20 22 21 20 20 19 18 16 15 15 14 12 14 16 15 14 13 9 2 354 344 328 304 274 243 233 230 217 201 200 209 215 209 198 198 198 196 197 192
50 51 55 55 48 43 42 40 37 36 34 31 25 21 22 27 27 22 19 18 16 14 12 13 17 21 22 21 20 20 19 17 14 13 12 12 13 16 16 16 16 14 8 358 349 341 326 299 253 232 226 218 208 202 205 209 205 197 193 186 183 185 176
49 48 57 58 50 45 44 42 40 39 38 34 29 27 28 30 28 22 17 15 14 12 9 8 12 19 22 22 21 20 21 20 16 12 11 11 12 14 16 17 17 15 10 2 353 345 339 323 247 232 230 225 220 216 208 202 197 193 184 172 168 169 163
53 50 55 59 52 46 44 43 41 40 39 36 34 33 33 32 27 21 18 15 13 11 9 8 10 16 21 23 22 21 21 21 18 14 13 14 14 14 14 16 19 18 13 9 3 354 345 331 264 237 231 227 229 226 211 193 188 182 168 157 156 155 156
58 57 56 56 51 46 46 47 45 42 40 37 35 33 32 29 26 22 19 17 13 10 10 9 10 14 19 22 24 23 21 19 19 17 16 16 16 17 17 18 21 22 20 17 15 12 3 348 318 269 244 235 233 225 200 179 174 166 151 146 147 143 144
62 60 54 53 51 46 46 47 47 45 43 39 36 33 30 27 25 20 17 16 14 10 9 9 11 13 16 20 23 25 22 18 17 18 18 16 16 19 22 24 25 27 28 28 28 27 24 22 19 359 276 228 201 183 172 160 152 145 135 131 133 130 128
65 56 49 52 53 46 44 46 48 48 45 42 39 35 31 27 24 19 14 12 12 10 8 9 10 11 13 17 21 24 23 20 18 17 19 19 19 22 26 30 31 32 34 36 38 39 38 38 40 44 64 130 143 144 150 149 141 131 123 115 111 109 109